| time (UTC) | temp F | wind direction | speed MPH | gust MPH | rain 1hr in | rain 24hr in | rain mn in | humidity % | barometer mb |
| 20260505010521 | 51 | 0.0 | 0.0 | 0.00 | 0.00 | 0.00 | 74 | 1015.8 | |
| 20260505005526 | 51 | 0.0 | 0.0 | 0.00 | 0.00 | 0.00 | 73 | 1016.0 | |
| 20260505004532 | 51 | 0.0 | 0.0 | 0.00 | 0.00 | 0.00 | 74 | 1016.0 | |
| 20260505003520 | 51 | 0.0 | 0.0 | 0.00 | 0.00 | 0.00 | 73 | 1016.0 | |
| 20260505002544 | 51 | 0.0 | 0.0 | 0.00 | 0.00 | 0.00 | 72 | 1016.1 | |
| 20260505001550 | 51 | 0.0 | 0.0 | 0.00 | 0.00 | 0.00 | 72 | 1016.3 | |
| 20260505000517 | 51 | 0.0 | 0.0 | 0.00 | 0.00 | 0.00 | 72 | 1016.3 | |
| 20260504235522 | 51 | 0.0 | 0.0 | 0.00 | 0.00 | 0.00 | 71 | 1016.4 | |
| 20260504234527 | 51 | 0.0 | 0.0 | 0.00 | 0.00 | 0.00 | 71 | 1016.4 | |
| 20260504233515 | 51 | 0.0 | 0.0 | 0.00 | 0.00 | 0.00 | 70 | 1016.4 | |
| 20260504232520 | 52 | 0.0 | 0.0 | 0.00 | 0.00 | 0.00 | 69 | 1016.4 | |
| 20260504231525 | 52 | 0.0 | 0.0 | 0.00 | 0.00 | 0.00 | 68 | 1016.5 | |
| 20260504230531 | 52 | 0.0 | 0.0 | 0.00 | 0.00 | 0.00 | 68 | 1016.7 | |
| 20260504225518 | 52 | 0.0 | 0.0 | 0.00 | 0.00 | 0.00 | 67 | 1016.7 | |
| 20260504224523 | 52 | 0.0 | 0.0 | 0.00 | 0.00 | 0.00 | 66 | 1016.8 | |
| 20260504223548 | 52 | 0.0 | 0.0 | 0.00 | 0.00 | 0.00 | 66 | 1016.8 | |
| 20260504222516 | 53 | 0.0 | 0.0 | 0.00 | 0.00 | 0.00 | 66 | 1017.1 | |
| 20260504221521 | 53 | 0.0 | 0.0 | 0.00 | 0.00 | 0.00 | 65 | 1016.9 | |
| 20260504220526 | 53 | 0.0 | 0.0 | 0.00 | 0.00 | 0.00 | 64 | 1017.0 | |
| 20260504215527 | 54 | 0.0 | 0.0 | 0.00 | 0.00 | 0.00 | 64 | 1017.1 | |
| 20260504214515 | 54 | 0.0 | 0.0 | 0.00 | 0.00 | 0.00 | 63 | 1017.1 | |
| 20260504213521 | 54 | 0.0 | 0.0 | 0.00 | 0.00 | 0.00 | 62 | 1017.1 | |
| 20260504212525 | 54 | 0.0 | 0.0 | 0.00 | 0.00 | 0.00 | 63 | 1017.1 | |
| 20260504211530 | 55 | 0.0 | 0.0 | 0.00 | 0.00 | 0.00 | 62 | 1017.0 | |
| 20260504210539 | 55 | 0.0 | 0.0 | 0.00 | 0.00 | 0.00 | 61 | 1017.1 | |
| 20260504205523 | 55 | 360 | 0.0 | 2.0 | 0.00 | 0.00 | 0.00 | 62 | 1017.1 |
| 20260504204548 | 55 | 0.0 | 0.0 | 0.00 | 0.00 | 0.00 | 63 | 1017.1 | |
| 20260504203516 | 56 | 0.0 | 0.0 | 0.00 | 0.00 | 0.00 | 65 | 1017.1 | |
| 20260504202521 | 56 | 0.0 | 0.0 | 0.00 | 0.00 | 0.00 | 66 | 1017.2 | |
| 20260504201526 | 56 | 0.0 | 0.0 | 0.00 | 0.00 | 0.00 | 66 | 1017.2 | |
| 20260504200531 | 56 | 0.0 | 0.0 | 0.00 | 0.00 | 0.00 | 65 | 1017.3 | |
| 20260504195519 | 56 | 0.0 | 0.0 | 0.00 | 0.00 | 0.00 | 65 | 1017.2 | |
| 20260504194524 | 57 | 0.0 | 0.0 | 0.00 | 0.00 | 0.00 | 65 | 1017.4 | |
| 20260504193529 | 57 | 0.0 | 0.0 | 0.00 | 0.00 | 0.00 | 64 | 1017.2 | |
| 20260504192517 | 57 | 0.0 | 0.0 | 0.00 | 0.00 | 0.00 | 64 | 1017.2 | |
| 20260504191522 | 57 | 0.0 | 0.0 | 0.00 | 0.00 | 0.00 | 63 | 1017.2 | |
| 20260504190527 | 57 | 0.0 | 0.0 | 0.00 | 0.00 | 0.00 | 63 | 1017.2 | |
| 20260504185532 | 58 | 0.0 | 0.0 | 0.00 | 0.00 | 0.00 | 62 | 1017.2 | |
| 20260504184520 | 58 | 243 | 0.0 | 2.0 | 0.00 | 0.00 | 0.00 | 61 | 1016.8 |
| 20260504183545 | 58 | 0.0 | 0.0 | 0.00 | 0.00 | 0.00 | 61 | 1017.0 | |
| 20260504182530 | 58 | 0.0 | 0.0 | 0.00 | 0.00 | 0.00 | 61 | 1016.9 | |
| 20260504181538 | 59 | 0.0 | 0.0 | 0.00 | 0.00 | 0.00 | 60 | 1016.7 | |
| 20260504180523 | 59 | 0.0 | 0.0 | 0.00 | 0.00 | 0.00 | 61 | 1016.7 | |
| 20260504175528 | 60 | 0.0 | 0.0 | 0.00 | 0.00 | 0.00 | 60 | 1016.5 | |
| 20260504174516 | 60 | 0.0 | 0.0 | 0.00 | 0.00 | 0.00 | 58 | 1016.6 | |
| 20260504173521 | 62 | 0.0 | 0.0 | 0.00 | 0.00 | 0.00 | 56 | 1016.6 | |
| 20260504172526 | 63 | 274 | 0.0 | 2.0 | 0.00 | 0.00 | 0.00 | 54 | 1016.5 |
| 20260504171531 | 64 | 0.0 | 0.0 | 0.00 | 0.00 | 0.00 | 39 | 1016.4 | |
| 20260504170519 | 64 | 3 | 3.0 | 8.0 | 0.00 | 0.00 | 0.00 | 33 | 1016.4 |
| 20260504150548 | 66 | 7 | 9.0 | 20.0 | 0.00 | 0.00 | 0.00 | 30 | 1016.4 |
| 20260504140544 | 66 | 24 | 10.0 | 20.0 | 0.00 | 0.00 | 0.00 | 27 | 1016.4 |
| 20260504130520 | 66 | 11 | 7.0 | 20.0 | 0.00 | 0.00 | 0.00 | 32 | 1016.4 |
| 20260504110529 | 63 | 23 | 7.0 | 20.0 | 0.00 | 0.00 | 0.00 | 35 | 1017.9 |
| 20260504100525 | 62 | 14 | 8.0 | 17.0 | 0.00 | 0.00 | 0.00 | 38 | 1018.0 |
| 20260504081529 | 60 | 358 | 2.0 | 8.0 | 0.00 | 0.00 | 0.00 | 43 | 1018.2 |
| 20260504080517 | 61 | 12 | 1.0 | 5.0 | 0.00 | 0.00 | 0.00 | 42 | 1018.1 |
| 20260504050542 | 54 | 0.0 | 0.0 | 0.00 | 0.02 | 0.00 | 59 | 1017.4 | |
| 20260504045526 | 52 | 0.0 | 0.0 | 0.00 | 0.02 | 0.00 | 62 | 1017.3 | |
| 20260504044532 | 50 | 0.0 | 0.0 | 0.00 | 0.02 | 0.00 | 63 | 1017.2 | |
| 20260504043519 | 49 | 0.0 | 0.0 | 0.00 | 0.03 | 0.00 | 65 | 1017.1 | |
| 20260504042525 | 48 | 0.0 | 0.0 | 0.00 | 0.03 | 0.00 | 69 | 1017.2 | |
| 20260504041550 | 47 | 0.0 | 0.0 | 0.00 | 0.03 | 0.00 | 68 | 1017.1 | |
| 20260504040517 | 47 | 0.0 | 0.0 | 0.00 | 0.03 | 0.00 | 72 | 1016.9 | |
| 20260504035523 | 47 | 0.0 | 0.0 | 0.00 | 0.05 | 0.00 | 71 | 1016.8 | |
| 20260504034527 | 47 | 0.0 | 0.0 | 0.00 | 0.05 | 0.00 | 70 | 1016.9 | |
| 20260504033515 | 47 | 0.0 | 0.0 | 0.00 | 0.05 | 0.00 | 70 | 1016.8 | |
| 20260504032520 | 48 | 0.0 | 0.0 | 0.00 | 0.05 | 0.00 | 69 | 1016.9 | |
| 20260504031525 | 48 | 0.0 | 0.0 | 0.00 | 0.05 | 0.00 | 68 | 1016.9 | |
| 20260504030531 | 48 | 0.0 | 0.0 | 0.00 | 0.05 | 0.00 | 67 | 1016.9 | |
| 20260504025518 | 48 | 0.0 | 0.0 | 0.00 | 0.05 | 0.00 | 66 | 1016.8 | |
| 20260504024523 | 48 | 175 | 0.0 | 2.0 | 0.00 | 0.05 | 0.00 | 66 | 1016.7 |
| 20260504023528 | 48 | 140 | 0.0 | 5.0 | 0.00 | 0.05 | 0.00 | 68 | 1016.7 |
| 20260504022517 | 48 | 0.0 | 0.0 | 0.00 | 0.06 | 0.00 | 68 | 1016.8 | |
| 20260504021522 | 47 | 0.0 | 0.0 | 0.00 | 0.06 | 0.00 | 68 | 1016.8 | |
| 20260504020527 | 47 | 0.0 | 0.0 | 0.00 | 0.06 | 0.00 | 68 | 1016.8 | |
| 20260504015532 | 47 | 0.0 | 0.0 | 0.00 | 0.06 | 0.00 | 68 | 1016.9 | |
| 20260504014520 | 47 | 0.0 | 0.0 | 0.00 | 0.06 | 0.00 | 68 | 1016.9 | |
| 20260504013524 | 47 | 0.0 | 0.0 | 0.00 | 0.06 | 0.00 | 68 | 1016.8 | |
| 20260504012529 | 48 | 0.0 | 0.0 | 0.00 | 0.07 | 0.00 | 68 | 1016.8 | |
| 20260504011518 | 48 | 0.0 | 0.0 | 0.00 | 0.07 | 0.00 | 67 | 1016.9 |